Belize, Belize

9:28 PM CST on April 29, 2017 (GMT -0600)
Philip S W Goldson International

Weather History for MZBZ - July, 2011

Change the Weather History Date:

Wednesday, July 27, 2011

  Actual Average Record
Temperature  
Mean Temperature 84 °F -  
Max Temperature 89 °F 89 °F 90 °F (2016)
Min Temperature 78 °F 76 °F 75 °F (1998)
Cooling Degree Days 18    
Growing Degree Days 34 (Base 50)    
Moisture  
Dew Point 77 °F    
Average Humidity 77    
Maximum Humidity 100    
Minimum Humidity 55    
Precipitation  
Precipitation 0.03 in 0.25 in - ()
Sea Level Pressure  
Sea Level Pressure 29.84 in    
Wind  
Wind Speed 3 mph ()    
Max Wind Speed 9 mph    
Max Gust Speed -    
Visibility 7.9 miles    
Events Rain    
Averages and records for this station are not official NWS values.
T = Trace of Precipitation, MM = Missing Value Source: Averaged Metar Reports

Daily Weather History Graph

Daily Weather History Graph

Search for Another Location

Airport or City:

Trip Planner

Search our weather history database for the weather conditions in past years. The results will help you decide how hot, cold, wet, or windy it might be!

Date:

Astronomy

Jul. 27, 2011 Rise Set
Actual Time 5:30 AM CST 6:28 PM CST
Civil Twilight 5:07 AM CST 6:51 PM CST
Nautical Twilight 4:39 AM CST 7:19 PM CST
Astronomical Twilight 4:11 AM CST 7:47 PM CST
Moon 2:23 AM CST (7/27) 3:54 PM CST (7/27)
Length of Visible Light 13h 44m
Length of Day
12h 57m
Waning Crescent, 11% of the Moon is Illuminated
Jul 27
Waning Crescent
Jul 30
New
Aug 6
First Quarter
Aug 13
Full
Aug 21
Last Quarter

Hourly Weather History & Observations

Time (CST) Temp. Heat Index Dew Point Humidity Pressure Visibility Wind Dir Wind Speed Gust Speed Precip Events Conditions
12:00 AM 81 °F - 76 °F 82% 29.86 in 12 mi Calm Calm - -  
12:00 AM 80.6 °F 87.1 °F 77.0 °F 89% 29.86 in 6.2 mi Calm Calm - N/A   Mostly Cloudy
3:00 AM 79 °F - 76 °F 90% 29.83 in 12 mi Calm Calm - -   Partly Cloudy
3:00 AM 78.8 °F - 77.0 °F 94% 29.83 in 6.2 mi Calm Calm - N/A   Mostly Cloudy
6:00 AM 79 °F - 78 °F 94% 29.85 in 7 mi Calm Calm - - Rain Light Rain Showers
6:00 AM 78.8 °F - 77.0 °F 94% 29.83 in 6.2 mi Calm Calm - N/A   Mostly Cloudy
7:00 AM 78.8 °F - 78.8 °F 100% 29.86 in 5.0 mi Calm Calm - N/A   Mostly Cloudy
8:00 AM 80.6 °F 88.1 °F 78.8 °F 94% 29.86 in 6.2 mi WSW 3.5 mph - N/A   Mostly Cloudy
9:00 AM 83 °F - 78 °F 82% 29.88 in 12 mi SSW 3.5 mph - -   Partly Cloudy
9:00 AM 84.2 °F 96.1 °F 78.8 °F 84% 29.87 in 6.2 mi SSW 3.5 mph - N/A   Mostly Cloudy
10:00 AM 87.8 °F 102.5 °F 78.8 °F 75% 29.87 in 6.2 mi Calm Calm - N/A   Scattered Clouds
11:00 AM 87.8 °F 97.6 °F 75.2 °F 66% 29.87 in 6.2 mi SE 5.8 mph - N/A   Scattered Clouds
12:00 PM 89 °F - 75 °F 56% 29.85 in 12 mi SSE 5.8 mph - -  
12:00 PM 89.6 °F 99.8 °F 75.2 °F 62% 29.85 in 6.2 mi SSE 5.8 mph - N/A   Scattered Clouds
1:00 PM 89.6 °F 102.2 °F 77.0 °F 66% 29.84 in 6.2 mi ESE 5.8 mph - N/A   Mostly Cloudy
2:00 PM 89.6 °F 102.2 °F 77.0 °F 66% 29.82 in 6.2 mi East 8.1 mph - N/A   Mostly Cloudy
3:00 PM 89 °F - 75 °F 55% 29.80 in 12 mi East 9.2 mph - -   Partly Cloudy
3:00 PM 89.6 °F 99.8 °F 75.2 °F 62% 29.79 in 6.2 mi East 9.2 mph - N/A   Mostly Cloudy
4:00 PM 89.6 °F 104.7 °F 78.8 °F 70% 29.77 in 6.2 mi East 6.9 mph - N/A   Mostly Cloudy
5:00 PM 89.6 °F 104.7 °F 78.8 °F 70% 29.79 in 6.2 mi East 8.1 mph - N/A   Mostly Cloudy
6:00 PM 87 °F - 78 °F 69% 29.80 in 12 mi East 8.1 mph - -  
6:00 PM 87.8 °F 102.5 °F 78.8 °F 75% 29.80 in 6.2 mi East 8.1 mph - N/A   Mostly Cloudy
9:00 PM 84 °F - 78 °F 77% 29.87 in 12 mi East 6.9 mph - -  
9:00 PM 84.2 °F 96.1 °F 78.8 °F 84% 29.86 in 6.2 mi East 6.9 mph - N/A   Mostly Cloudy